Location: Poughquag
(41.6090°N, 73.6820°W)
Time: 03:39:51
(UTC-04:00)

Vanguard 1 - Pass Details

Date: 04 June 2020
Orbit: 650 x 3833 km, 34.2° (Epoch: 06 July)

Event Time Altitude Azimuth Distance (km) Brightness Sun altitude
Rises 07:08:51 0° 255° (WSW) 5,980 13.4 17.5°
Reaches altitude 10° 07:12:10 10° 253° (WSW) 5,309 13.3 18.1°
Maximum altitude 07:29:40 70° 175° (S) 3,710 13.3 21.3°
Drops below altitude 10° 07:53:09 10° 98° (E) 6,813 15.9 25.7°
Sets 07:58:07 0° 97° (E) 7,665 15.8 26.6°
